Location: Cheching
(60.0667°N, 164.2167°W)
Time: 14:03:11
(UTC+00:00)

NOAA 19 - Pass Details

Date: 24 January 2021
Orbit: 840 x 862 km, 99.2° (Epoch: 01 March)

Event Time Altitude Azimuth Distance (km) Brightness Sun altitude
Rises 16:46:01 0° 21° (NNE) 3,431 8.6 -19.3°
Reaches altitude 10° 16:48:52 10° 35° (NE) 2,487 8.0 -18.9°
Maximum altitude 16:53:19 24° 89° (E) 1,673 7.6 -18.4°
Drops below altitude 10° 16:57:43 10° 143° (SE) 2,464 8.2 -17.8°
Sets 17:00:31 0° 157° (SSE) 3,392 8.8 -17.5°
